{"data":{"norad_id":56692,"epoch":"2026-09-20T16:35:37.056768Z","epoch_age_seconds":98394,"freshness":"FRESH","line1":"1 56692U 23067E   26263.69140112  .00000417  00000+0  24695-4 0  9990","line2":"2 56692  43.0025 259.9612 0001641 268.0269  92.0395 15.27580666184279","mean_motion":15.27580666,"eccentricity":0.0001641,"inclination_deg":43.0025,"raan_deg":259.9612,"arg_perigee_deg":268.0269,"mean_anomaly_deg":92.0395,"bstar":2.4695e-5,"rev_number":18427,"period_min":94.266707614902,"perigee_km":481.92118148568,"apogee_km":484.17302210789,"semimajor_km":6861.1841017968,"source":"CELESTRAK","updated_at":"2026-09-21T09:00:33.481375Z"}}